Temp
16 15 14 15 15 18 19 18 18 17 20 19 17 17 19 18 17 16 16 17 16 15 17 17 16 16 15 14 14 13 13 13 12 12 11 11 11 11 11 11 11 11 11 11
15 14 16 16 16 16 16 16 16 16 18 16 17 17 17 17 17 18 18 18 15 15 15 14 14 14 14 13 13 12 13 13 12 12 12 11 11 10 10 10 10 10 11 11
14 17 17 16 16 16 16 15 16 17 18 17 17 16 17 18 18 17 17 16 16 14 14 14 12 12 12 11 12 12 12 13 12 12 11 11 10 10 9 9 10 10 10 10
14 17 17 16 17 16 15 16 17 17 18 15 17 15 16 19 18 15 12 14 12 11 12 13 12 10 11 10 11 11 12 12 12 12 11 11 9 8 9 9 10 10 9 10
16 18 17 16 17 16 17 18 17 18 16 16 16 15 15 16 13 7 6 9 8 8 8 9 8 9 10 10 11 11 11 11 11 11 11 11 9 9 9 9 9 9 9 9
15 17 18 17 18 16 18 18 15 13 13 14 15 16 14 6 5 4 5 5 6 5 5 4 5 8 8 9 10 10 10 10 10 10 10 10 10 9 9 8 8 8 8 8
15 16 16 17 17 17 17 15 14 14 13 14 14 15 8 5 3 4 5 4 3 2 1 1 1 1 3 6 8 10 10 9 10 10 10 10 10 9 9 9 8 8 7 7
14 14 16 17 17 15 14 15 14 15 14 15 13 14 8 4 3 3 2 2 1 1 0 -0 -0 -0 -0 0 1 3 7 10 9 9 9 9 9 9 9 8 8 8 8 8
12 14 16 17 17 18 16 14 16 16 15 13 14 5 3 3 2 1 1 -0 -1 -1 -2 -2 -2 -2 -2 -2 -2 -1 1 3 5 8 9 9 9 8 8 8 8 8 8 7
10 11 15 15 16 16 16 16 15 14 15 14 14 11 10 1 -0 -0 -1 -2 -2 -3 -3 -3 -4 -4 -4 -4 -3 -3 -2 -1 -1 3 4 6 7 8 8 8 7 7 7 6
8 10 13 15 15 15 13 14 14 14 13 16 16 10 1 -1 -2 -2 -3 -3 -4 -4 -5 -5 -5 -6 -6 -5 -5 -5 -4 -3 -2 -1 -0 1 2 4 5 6 7 7 7 6
8 7 9 11 13 13 7 8 9 12 13 12 14 9 -2 -2 -3 -3 -4 -5 -5 -5 -5 -5 -6 -7 -7 -7 -6 -6 -6 -5 -4 -3 -2 -1 -1 0 1 1 3 4 4 5
8 7 6 11 12 10 8 4 4 7 8 10 11 4 -3 -3 -4 -5 -5 -6 -6 -6 -6 -6 -7 -7 -8 -8 -8 -7 -7 -7 -6 -5 -4 -3 -2 -2 -2 -1 -0 0 1 2
8 6 5 7 7 8 6 3 2 5 6 5 2 -3 -6 -5 -5 -5 -6 -6 -7 -7 -7 -8 -8 -8 -9 -9 -9 -8 -8 -7 -7 -6 -6 -6 -6 -5 -4 -3 -2 -1 -1 -1
5 3 5 5 5 5 -2 -1 -1 -0 -3 1 -3 -6 -7 -7 -7 -6 -7 -7 -7 -8 -8 -8 -9 -9 -9 -9 -10 -9 -9 -8 -8 -7 -7 -7 -7 -6 -6 -5 -4 -4 -3 -2
3 -1 4 2 5 4 -4 -4 -2 -3 -4 -3 -5 -6 -7 -7 -7 -7 -8 -8 -8 -8 -9 -9 -9 -9 -10 -10 -10 -10 -10 -9 -9 -9 -9 -8 -8 -7 -7 -7 -6 -6 -5 -5
3 1 -3 -2 3 1 -0 -6 -4 -5 -7 -6 -5 -7 -8 -8 -8 -8 -9 -9 -10 -9 -9 -9 -10 -10 -10 -10 -10 -10 -10 -10 -9 -9 -9 -9 -9 -9 -9 -8 -8 -7 -7 -7
3 3 4 1 3 2 -6 -6 -6 -7 -8 -9 -8 -9 -10 -10 -10 -10 -11 -11 -11 -11 -10 -10 -10 -11 -10 -10 -10 -10 -10 -10 -10 -9 -9 -9 -10 -10 -10 -10 -10 -9 -9 -8
3 3 -1 -3 -6 -6 -7 -8 -8 -9 -9 -10 -10 -11 -13 -12 -12 -10 -12 -12 -12 -12 -12 -11 -11 -10 -10 -10 -10 -10 -10 -10 -10 -9 -9 -9 -10 -10 -10 -10 -10 -10 -10 -10
2 0 -1 -4 -3 -4 -9 -8 -9 -10 -10 -13 -14 -16 -17 -16 -13 -13 -16 -13 -13 -13 -12 -12 -11 -11 -11 -11 -11 -10 -10 -10 -10 -10 -10 -10 -10 -10 -10 -10 -10 -9 -9 -9
-3 -6 -6 -8 -10 -10 -11 -11 -11 -8 -9 -15 -13 -15 -17 -15 -16 -14 -13 -14 -13 -12 -12 -11 -12 -12 -11 -11 -11 -11 -11 -11 -11 -11 -11 -11 -11 -11 -11 -10 -10 -10 -10 -10
-10 -12 -10 -12 -11 -6 -13 -11 -8 -13 -17 -19 -19 -19 -15 -15 -15 -15 -14 -13 -13 -13 -13 -12 -13 -12 -12 -12 -12 -12 -12 -12 -12 -12 -12 -12 -12 -11 -11 -11 -11 -11 -10 -10
-7 -11 -10 -10 -9 -11 -13 -13 -15 -17 -15 -18 -19 -17 -18 -16 -15 -14 -14 -14 -13 -13 -13 -13 -13 -13 -13 -13 -13 -13 -13 -14 -14 -14 -14 -13 -13 -12 -12 -12 -12 -11 -11 -11
-11 -12 -11 -11 -12 -15 -17 -19 -20 -20 -19 -20 -21 -17 -17 -16 -15 -14 -14 -14 -14 -14 -13 -13 -13 -14 -14 -14 -14 -15 -15 -15 -15 -15 -14 -14 -14 -13 -13 -13 -13 -13 -12 -12
-13 -13 -15 -13 -15 -16 -18 -20 -18 -21 -18 -21 -16 -17 -16 -15 -14 -15 -15 -15 -14 -14 -14 -14 -15 -15 -15 -15 -16 -16 -16 -16 -16 -16 -15 -15 -15 -15 -14 -14 -14 -14 -13 -13
-14 -15 -16 -14 -20 -19 -18 -20 -20 -19 -20 -17 -16 -15 -14 -15 -15 -15 -15 -15 -15 -15 -15 -16 -16 -16 -16 -17 -17 -17 -17 -17 -17 -16 -16 -16 -16 -16 -15 -15 -15 -15 -14 -13
Height
767 778 778 770 767 760 759 766 766 760 747 753 756 749 738 735 735 734 730 724 721 719 710 715 718 724 731 737 743 749 755 762 768 772 776 780 782 786 789 791 793 795 798 800
773 777 758 761 764 765 766 770 769 758 747 756 751 747 739 733 729 723 719 711 714 714 711 710 714 719 724 729 736 744 750 757 762 767 772 776 780 784 787 790 792 795 796 799
772 757 749 758 761 765 764 768 766 761 748 749 750 747 736 723 722 716 710 711 711 712 710 709 711 714 719 725 731 738 746 753 759 765 770 775 780 784 787 788 790 792 795 798
765 749 749 756 756 760 763 753 751 755 756 769 749 765 743 723 721 739 742 729 729 725 717 714 714 717 721 727 733 739 745 751 757 762 767 770 774 778 781 784 787 791 794 796
756 744 747 755 747 749 748 741 747 745 754 756 754 765 748 729 747 772 773 756 748 742 735 731 729 727 728 731 736 740 746 751 757 762 766 770 774 777 780 784 787 789 792 794
751 741 740 741 736 741 738 742 755 763 766 771 749 753 755 796 803 796 785 775 765 759 753 747 744 741 740 741 743 747 750 754 758 762 766 769 773 776 779 782 785 787 789 791
750 742 734 732 742 739 740 753 772 769 777 759 746 750 786 806 811 804 791 783 781 777 770 765 760 758 755 754 752 751 753 756 759 762 765 768 771 774 776 779 782 784 786 787
763 759 736 732 735 742 751 750 764 757 764 750 751 748 784 811 812 809 803 798 793 787 786 781 779 774 770 766 762 761 760 756 760 762 764 767 770 772 775 777 780 782 783 785
771 754 735 733 730 730 743 751 734 743 745 757 744 799 809 810 811 809 808 806 805 803 800 795 791 787 783 778 775 771 765 763 764 763 762 765 767 770 772 775 777 779 781 784
781 774 741 738 731 732 735 732 742 746 746 746 734 745 750 812 820 819 819 819 817 813 809 805 802 798 794 789 785 779 773 770 769 765 765 767 767 768 769 772 774 775 778 781
791 778 747 739 741 741 743 739 736 735 735 720 718 751 820 831 836 833 834 832 829 825 821 816 812 807 802 796 790 785 780 778 775 773 770 768 767 767 768 769 770 772 775 777
794 793 771 750 742 741 768 770 768 743 732 732 716 755 837 839 841 840 841 840 837 833 830 825 820 814 808 803 797 793 790 788 785 780 776 775 774 771 769 769 770 771 773 775
795 793 798 750 741 755 769 795 800 784 768 744 731 786 844 846 845 846 846 845 843 840 835 831 826 821 815 810 807 804 801 797 792 786 781 779 778 778 776 776 775 774 774 774
793 800 801 791 781 781 789 806 811 793 785 785 808 839 855 854 849 849 849 849 848 846 842 838 833 828 822 815 811 809 806 803 799 793 788 786 784 783 780 779 779 779 778 778
802 815 803 796 794 796 834 832 830 823 840 811 837 855 864 860 857 854 853 851 849 846 844 841 837 833 828 821 814 811 809 806 804 798 792 791 790 788 785 782 780 781 780 779
810 834 806 809 791 794 846 846 835 844 850 841 852 859 865 863 860 860 856 853 849 847 844 841 838 834 834 830 823 814 812 811 808 807 800 798 795 792 789 787 785 783 782 780
815 817 842 836 804 812 826 862 854 861 867 863 855 868 870 868 867 867 860 862 860 856 852 846 842 837 834 831 827 817 813 812 810 811 805 802 799 795 793 790 787 784 783 786
808 808 802 814 804 802 870 868 866 871 875 877 875 877 878 876 872 866 864 864 860 857 855 848 842 837 834 832 829 822 813 813 812 811 807 804 801 798 796 793 791 787 783 784
806 806 825 845 865 868 873 875 877 880 880 884 882 883 884 877 867 860 863 862 863 862 857 847 841 838 835 833 828 823 814 813 811 809 806 803 800 797 796 794 792 790 786 784
809 816 822 846 845 853 884 876 877 880 887 887 889 892 890 882 874 872 864 863 861 855 849 844 839 835 833 829 824 818 812 811 808 806 803 801 803 799 796 794 791 789 788 786
838 854 860 871 890 890 886 882 880 876 884 891 886 886 887 885 883 869 865 860 857 851 845 841 837 833 828 824 819 814 811 809 808 806 804 802 800 798 794 790 789 787 785 783
886 899 887 895 897 868 885 882 874 890 893 893 889 886 880 877 871 865 858 853 848 844 840 838 834 830 826 823 819 815 812 811 809 806 803 799 796 793 791 788 786 784 782 781
870 890 886 886 878 884 884 883 886 887 888 887 885 879 876 870 865 860 854 849 845 841 837 833 830 826 823 821 818 815 812 809 805 802 798 795 792 790 787 785 783 780 779 778
889 890 888 889 888 890 890 888 887 887 887 882 879 875 871 867 861 855 851 846 842 839 835 831 827 823 820 817 815 812 808 805 801 797 793 790 787 785 783 781 780 777 776 775
902 896 905 895 894 890 890 891 887 885 881 879 875 872 867 862 856 853 848 844 840 835 831 828 825 821 817 814 811 807 804 800 796 793 789 786 784 781 779 777 776 775 773 772
906 909 914 904 905 904 895 888 885 883 880 875 871 865 863 859 855 850 846 842 838 833 829 825 822 818 814 810 806 802 799 796 792 788 785 782 779 776 774 772 770 769 767 765
Wind_Speed
3 3 10 12 11 3 2 4 5 5 4 5 9 13 15 10 6 10 11 13 13 12 13 21 29 34 34 35 38 41 41 37 35 32 29 28 26 24 22 20 19 20 19 19
1 8 12 7 7 7 7 7 9 9 8 7 9 13 11 9 8 10 13 16 11 7 6 8 21 30 35 38 38 39 41 39 38 36 34 29 28 24 22 20 19 20 20 20
7 6 3 8 6 6 10 7 6 10 5 4 5 8 7 6 4 8 14 10 7 10 10 8 10 24 30 33 38 40 40 40 39 37 33 25 25 21 21 22 22 22 21 21
7 10 14 6 4 9 8 10 11 7 2 5 2 6 5 7 8 20 24 18 14 15 10 6 2 9 19 22 29 32 37 37 38 37 35 33 30 22 20 28 25 22 21 21
8 3 4 7 11 9 9 8 7 4 4 2 4 2 7 4 10 21 22 22 21 20 20 17 10 9 11 20 27 30 32 32 34 34 34 32 30 26 17 25 24 23 23 23
11 3 3 6 2 6 2 3 6 4 3 4 8 7 3 5 8 14 19 18 21 22 22 23 31 22 11 11 16 20 25 25 28 31 31 32 29 27 21 25 26 25 24 24
5 5 4 7 5 0 3 5 2 3 0 7 1 5 4 7 11 13 14 18 21 21 22 22 24 28 31 21 3 14 19 21 23 27 28 28 28 28 26 25 28 27 26 27
3 7 3 1 9 6 6 7 5 6 4 4 4 6 4 9 10 14 19 19 21 23 21 23 24 29 31 30 34 25 6 18 19 23 25 24 25 26 25 24 25 28 30 29
5 5 6 3 4 7 2 5 8 4 2 1 5 4 6 10 15 19 20 21 21 21 20 21 27 31 31 32 31 30 27 22 8 18 23 23 22 23 23 23 24 27 28 27
2 8 5 6 2 1 5 2 1 2 5 7 6 6 3 13 16 17 20 20 20 20 20 19 24 28 30 30 30 32 31 30 26 17 8 11 18 20 21 21 23 25 24 24
5 4 5 4 4 6 3 4 6 3 4 13 14 3 6 8 11 12 14 16 17 18 17 17 23 26 28 30 32 33 34 32 32 30 23 18 11 1 8 15 19 22 21 22
4 4 8 6 13 3 9 9 8 4 9 4 7 4 6 9 10 11 12 13 14 15 15 16 23 25 27 29 32 32 33 31 30 26 24 25 23 19 14 6 5 12 18 21
4 3 5 14 0 5 8 6 5 5 6 6 7 2 9 10 10 11 12 12 13 15 15 14 20 22 24 26 27 27 29 30 29 27 25 23 21 20 18 14 10 5 4 11
6 3 5 7 8 8 6 6 8 3 4 7 1 4 10 11 10 10 10 10 8 9 11 13 16 20 22 24 26 27 27 28 28 26 25 26 24 20 16 12 9 7 2 3
2 4 2 10 8 3 8 7 11 6 8 3 4 4 5 9 11 7 8 9 10 10 11 11 11 18 20 22 24 27 28 28 26 24 23 22 20 19 19 17 14 9 4 3
4 4 9 11 9 5 6 10 4 7 6 4 7 3 8 8 10 6 10 13 13 14 13 13 17 17 20 19 19 21 23 24 22 23 21 19 17 16 16 16 16 14 13 11
5 3 2 5 5 9 3 6 5 3 7 5 4 4 9 9 11 5 6 7 10 13 13 13 15 17 20 22 24 22 23 21 21 18 19 20 19 17 16 13 11 11 12 11
4 2 4 3 2 4 3 4 6 7 4 7 5 7 8 9 12 9 3 9 11 12 12 14 17 19 21 24 23 23 21 20 20 18 17 18 18 17 17 16 15 12 10 10
1 4 1 2 2 2 2 2 2 2 1 2 4 5 5 11 10 3 1 11 9 14 19 19 22 22 23 23 22 22 20 19 19 18 16 19 19 18 18 18 17 17 16 14
8 6 3 2 3 5 3 3 5 2 4 3 1 4 4 7 6 4 6 16 16 20 23 24 23 24 24 24 23 22 22 21 20 17 20 19 17 18 19 18 16 14 14 13
5 4 3 2 2 4 4 4 2 2 4 3 2 4 3 2 4 12 20 16 19 19 23 23 23 23 23 25 23 23 24 19 20 21 20 20 18 19 17 17 17 15 16 14
2 2 1 2 3 3 0 2 2 3 4 4 4 4 5 8 11 11 11 14 18 19 20 20 20 22 24 20 22 22 18 20 22 23 23 21 21 19 16 17 18 16 15 16
1 1 1 3 2 2 2 3 2 4 3 4 2 5 5 11 10 11 11 14 18 19 21 21 20 21 19 21 15 16 21 26 23 23 23 22 21 18 17 18 16 15 15 15
4 3 0 3 3 4 4 3 1 2 3 5 5 8 7 10 12 12 13 16 19 20 21 21 21 18 21 20 20 24 23 22 23 22 21 22 20 20 18 18 19 16 17 18
2 5 4 4 3 6 3 3 3 6 8 4 14 11 11 11 13 14 12 18 20 21 22 18 20 21 21 22 23 25 23 24 21 20 19 19 18 19 20 19 17 19 20 19
2 1 1 4 4 4 7 5 8 7 5 11 12 14 16 17 15 19 18 19 20 23 19 22 21 22 24 24 23 25 23 21 21 20 18 19 21 21 19 18 22 19 19 21
Wind_Direction
216 155 219 202 206 192 144 215 254 259 215 232 235 245 258 262 285 267 267 260 247 235 237 221 210 205 202 200 198 196 195 196 191 187 184 184 186 187 192 195 193 191 190 187
100 236 238 198 215 232 259 271 273 287 258 180 273 264 259 258 238 245 254 262 250 250 231 208 193 190 193 192 191 190 194 194 193 193 189 190 189 190 194 194 194 194 193 191
194 228 51 184 203 209 235 218 244 246 302 247 286 285 253 276 233 252 265 282 271 255 243 223 178 183 183 183 185 188 191 195 194 196 191 191 185 188 190 195 197 196 198 197
237 246 249 199 245 184 254 204 238 254 238 261 142 285 313 265 282 15 5 358 15 6 352 349 159 156 174 177 182 186 192 195 196 197 194 191 183 179 199 197 198 198 199 200
247 268 208 218 232 175 247 195 202 208 204 331 212 288 269 271 11 360 346 2 15 17 21 18 21 82 140 169 180 187 192 194 197 196 199 196 195 201 202 202 201 202 204 205
245 252 253 216 199 182 144 111 45 48 93 258 204 168 314 7 339 337 337 351 17 17 20 22 22 27 73 150 171 184 189 193 199 200 203 205 206 208 207 205 208 209 209 208
326 238 247 176 221 253 140 100 294 303 186 234 211 169 85 52 13 358 6 23 22 20 21 21 20 18 23 20 151 186 196 196 204 205 207 211 219 221 222 216 214 212 212 212
278 322 191 359 211 188 203 170 186 218 202 249 86 216 137 74 29 25 22 27 23 22 18 20 18 20 20 20 26 25 247 204 210 210 213 219 224 224 227 229 226 225 223 222
339 271 330 225 232 156 183 184 234 283 202 18 208 68 195 48 26 22 19 20 19 17 17 18 15 18 16 18 19 21 32 38 354 225 217 220 223 225 231 237 238 237 234 230
344 291 260 325 6 337 187 179 154 221 220 234 245 180 148 9 10 15 16 15 12 13 14 16 17 15 15 18 17 22 25 29 28 35 13 251 230 233 238 241 242 237 237 234
1 226 280 313 197 229 300 250 227 218 203 249 255 207 37 30 18 16 20 17 15 14 11 11 15 16 15 19 19 20 22 22 23 30 31 37 40 26 240 240 233 230 234 234
4 290 284 227 279 310 66 22 7 283 267 251 261 199 36 40 37 26 25 18 16 18 14 12 12 15 17 16 18 18 17 19 22 24 28 32 32 31 36 35 232 232 237 232
319 296 323 308 127 47 45 53 5 305 281 273 278 108 24 25 36 27 22 17 12 10 9 8 10 12 14 14 14 14 18 18 23 29 30 26 26 27 26 19 17 26 236 223
185 237 216 257 302 336 326 23 358 266 268 309 162 136 6 359 6 17 15 13 8 5 4 1 359 1 7 11 9 7 10 16 19 24 31 31 28 28 28 24 18 352 289 192
75 254 284 288 300 337 48 19 25 44 351 223 93 87 360 346 339 9 0 1 5 5 6 3 359 355 352 2 7 6 4 6 8 17 24 24 21 22 27 32 35 30 6 315
5 286 317 294 283 174 81 27 30 32 3 69 131 112 20 345 319 17 12 359 354 355 354 354 353 354 350 348 353 1 2 1 4 4 11 10 14 16 21 20 19 24 29 44
277 227 91 264 143 125 105 9 46 82 33 337 32 19 354 347 343 4 28 5 357 345 341 339 339 338 338 338 343 351 358 359 3 358 3 3 2 5 7 8 12 16 12 2
250 323 228 264 327 234 88 68 73 99 47 20 1 351 338 312 290 280 53 10 346 338 327 329 329 328 332 340 342 344 351 352 353 351 356 358 357 357 355 356 354 355 357 353
212 245 341 100 72 26 298 21 4 48 203 345 312 321 311 318 309 124 32 7 319 304 313 318 327 335 335 339 340 341 348 345 348 350 345 346 347 344 340 337 339 340 341 337
26 17 111 37 147 216 223 328 326 111 279 271 236 279 305 345 12 261 322 323 307 307 321 325 333 334 337 338 338 338 346 343 338 344 341 335 329 327 325 322 319 316 315 314
346 3 74 8 117 293 252 291 336 90 274 281 269 269 291 312 220 280 299 297 300 307 318 328 328 329 335 337 342 342 338 342 342 335 331 327 324 322 321 318 316 311 308 302
102 64 346 49 69 323 279 340 179 216 297 241 261 241 265 270 285 287 298 304 312 312 318 321 317 319 328 334 331 326 327 329 328 324 321 318 318 317 311 311 309 306 300 300
351 178 261 166 237 241 291 184 200 153 233 289 271 274 254 297 296 300 304 311 315 315 315 316 313 315 323 325 323 324 319 320 318 319 316 315 315 311 307 304 305 306 304 298
7 8 325 7 297 281 275 304 266 189 245 276 249 284 292 285 298 301 310 310 312 313 314 317 318 322 318 320 321 318 317 315 316 311 310 310 307 306 305 304 303 298 298 295
258 340 336 276 314 327 354 255 286 307 305 283 303 281 285 298 307 307 309 310 310 312 314 317 319 314 314 315 312 311 312 314 310 305 303 303 303 304 302 298 292 290 289 284
359 250 67 262 222 191 260 278 297 307 303 311 310 313 315 311 308 311 309 309 314 308 323 319 315 313 310 310 308 307 309 309 307 304 304 300 300 296 292 291 295 289 285 283